User: anonymous   Login
Location: Oshawa
(43.9000°N, 78.8670°W)
Time: 17:24:38
(UTC-04:00)
Language:

CARTOSAT-1 - Orbit

View from above orbital plane
View from above orbital plane
View from above satellite
View from above satellite

Ground track
Ground track

The orbit data is extracted from the following two-line orbital elements,

1 28649U 05017A   17141.91710757 +.00000121 +00000-0 +21129-4 0  9996
2 28649 097.8611 216.7320 0003482 110.1869 249.9715 14.83448198652085
Epoch (UTC): 21 May 2017 22:00:38
Eccentricity: 0.0003482
inclination: 97.8611°
perigee height: 616 km
apogee height: 621 km
right ascension of ascending node: 216.7320°
argument of perigee: 110.1869°
revolutions per day: 14.83448198
mean anomaly at epoch: 249.9715°
orbit number at epoch: 65208

The dashed part of the orbit path shows where the satellite is in the earth's shadow,  

DLR